#timestamp,LO_Frequency,Hit,StdDev 
1620136815.2,286047000.4,P
1620136835.1,286047002.7,P
1620136836.0,286047002.7,N
1620136855.8,286047004.2,Y
1620136875.6,286047004.2,P
1620136895.5,286047000.2,N
1620136915.3,286046998.4,N
1620136935.2,286046999.4,N
1620136955.9,286047000.4,N
1620136975.7,286046999.8,N
1620136995.6,286047001.1,N
1620137015.4,286046996.5,N
1620137035.2,286046997.1,N
1620137055.1,286046995.3,N
1620137056.0,286046995.3,N
1620137075.8,286046993.6,N
1620137095.7,286046995.0,N
1620137115.5,286046999.1,N
1620137135.3,286046998.9,N
1620137155.2,286046999.4,N
1620137175.9,286046999.0,N
1620137195.7,286046999.6,N
1620137215.6,286047000.8,N
1620137235.3,286047001.1,N
1620137255.1,286047002.4,N
1620137275.9,286047002.7,N
1620137295.7,286046998.5,N
1620137315.5,286047000.4,N
1620137335.4,286047001.2,N
1620137355.2,286047000.4,N
1620137375.0,286047000.2,N
1620137375.9,286047000.2,N
1620137395.8,286046998.5,N
1620137415.6,286046999.5,N
1620137435.5,286046997.4,N
1620137455.3,286046995.8,N
1620137475.1,286046993.8,N
1620137495.9,286046994.4,N
1620137515.7,286046992.3,Y
1620137535.6,286046995.0,P
1620137555.4,286046997.8,N
1620137575.2,286046997.4,N
1620137595.1,286046996.9,N
1620137596.0,286046996.9,N
1620137615.8,286046997.2,N
1620137635.7,286047001.0,N
1620137655.5,286046998.5,N
1620137675.3,286046999.8,N
1620137695.2,286047003.0,N
1620137715.0,286047003.7,N
1620137715.9,286047003.7,N
1620137735.8,286047004.3,N
1620137755.6,286047003.5,N
1620137775.4,286047001.9,N
1620137795.3,286047000.9,N
1620137815.1,286047000.4,N
1620137835.8,286046999.4,N
1620137855.7,286046998.9,N
1620137875.5,286046998.2,N
1620137895.4,286047000.3,N
1620137915.2,286047001.3,N
1620137935.0,286047000.0,N
1620137935.9,286047000.0,N
1620137955.8,286047000.8,N
1620137975.6,286047000.3,N
1620137995.4,286047000.1,N
1620138015.3,286046999.8,N
1620138035.1,286047000.2,N
1620138055.9,286047003.6,N
1620138075.7,286047003.2,N
1620138095.5,286047001.8,N
1620138115.4,286047002.4,N
1620138135.2,286047000.0,N
1620138155.0,286047004.4,N
1620138155.9,286047004.4,N
1620138175.8,286047002.3,N
1620138195.6,286047000.2,N
1620138215.5,286047002.1,N
1620138235.3,286047004.0,N
1620138255.1,286047001.7,N
1620138275.9,286047003.9,N
1620138295.7,286047001.7,N
1620138315.5,286047000.2,N
1620138335.4,286046998.1,N
1620138355.2,286046998.5,N
1620138375.1,286047000.9,N
1620138376.0,286047000.9,N
1620138395.8,286047000.8,N
1620138415.6,286047002.8,N
1620138435.5,286047001.2,N
1620138455.3,286046998.1,N
1620138475.1,286046998.5,N
1620138495.9,286047001.5,N
1620138515.7,286047002.8,N
1620138535.6,286047001.3,N
1620138555.4,286047001.4,N
1620138575.2,286046999.8,N
1620138595.1,286047000.9,N
1620138596.0,286047000.9,N
1620138615.8,286047000.9,N
1620138635.7,286047001.8,N
1620138655.5,286047001.5,N
1620138675.3,286047001.2,N
1620138695.2,286046998.2,N
1620138715.0,286046996.8,N
1620138715.9,286046996.8,N
1620138735.8,286046996.8,N
1620138755.6,286046998.8,N
1620138775.4,286046997.4,N
1620138795.3,286046996.6,N
1620138815.1,286046999.3,N
1620138835.8,286046999.4,N
1620138855.7,286046999.6,N
1620138875.5,286046996.9,N
1620138895.4,286046997.7,N
1620138915.2,286046999.1,N
1620138935.0,286046999.6,N
1620138935.9,286046999.6,N
1620138955.8,286046997.0,N
1620138975.6,286046997.1,N
1620138995.5,286046995.6,N
1620139015.3,286046995.8,N
1620139035.1,286046994.9,N
1620139055.9,286046997.6,N
1620139075.7,286046997.9,N
1620139095.5,286046995.4,N
1620139115.4,286046995.3,N
1620139135.2,286046996.6,N
1620139155.1,286046997.0,N
1620139156.0,286046997.0,N
1620139175.8,286047000.5,N
1620139195.6,286046998.6,N
1620139215.5,286046998.2,N
1620139235.3,286046999.3,N
1620139255.2,286047000.8,N
1620139275.9,286047001.0,N
1620139295.7,286047001.1,N
1620139315.6,286047000.7,N
1620139335.4,286046998.8,N
1620139355.2,286046997.3,N
1620139375.1,286046996.9,N
1620139376.0,286046996.9,N
1620139395.8,286046994.9,N
1620139415.7,286046997.7,N
1620139435.5,286046998.0,N
1620139455.3,286046995.2,N
1620139475.2,286046998.0,N
1620139495.0,286046997.4,N
1620139495.9,286046997.4,N
1620139515.7,286046997.8,N
1620139535.6,286046997.1,N
1620139555.4,286047000.8,N
1620139575.3,286046999.1,N
1620139595.1,286046995.4,N
1620139596.0,286046995.4,N
1620139615.8,286046997.9,N
1620139635.7,286046999.4,N
1620139655.5,286046997.6,N
1620139675.3,286046999.6,N
1620139695.2,286046999.1,N
1620139715.0,286046998.3,N
1620139715.9,286046998.3,N
1620139735.8,286047000.5,N
1620139755.6,286047000.7,N
1620139775.4,286047000.7,N
1620139795.3,286046996.8,N
1620139815.1,286046997.2,N
1620139835.8,286046995.4,N
1620139855.7,286046997.5,N
1620139875.5,286047002.0,N
1620139895.4,286047002.1,N
1620139915.2,286046999.8,N
1620139935.0,286047000.9,N
1620139935.9,286047000.9,N
1620139955.8,286046999.7,N
1620139975.6,286046999.9,N
1620139995.5,286046999.8,N
1620140015.3,286046999.9,N
1620140035.1,286047000.3,N
1620140055.9,286047002.8,N
1620140075.7,286047002.7,N
1620140095.5,286047000.3,N
1620140115.4,286047002.7,N
1620140135.2,286047003.8,N
1620140155.1,286047002.2,N
1620140156.0,286047002.2,N
1620140175.8,286047002.8,N
1620140195.6,286047001.2,N
1620140215.5,286047002.5,N
1620140235.3,286047001.4,N
1620140255.2,286047000.3,N
1620140275.9,286047000.0,N
1620140295.7,286047000.4,N
1620140315.6,286047000.5,N
1620140335.4,286047002.5,N
1620140355.2,286047002.7,N
1620140375.1,286047002.8,N
1620140376.0,286047002.8,N
1620140395.8,286047002.2,N
